Tracking 19164 objects as of 21-May-2018
HD Live streaming from Space Station
objects crossing your sky now

NOAA 16 DEB

Track NOAA 16 DEB now!
10-day predictions


NORAD ID: 41045
Int'l Code: 2000-055C
Perigee: 841.8 km
Apogee: 863.0 km
Inclination: 98.8 °
Period: 101.8 minutes
Semi major axis: 7223 km
RCS: Unknown
Launch date: September 21, 2000
Source: United States (US)
Launch site: AIR FORCE WESTERN TEST RANGE (AFWTR)

Note: This is SATELLITE DEBRIS
aabbcc
Your satellite tracking list
Your tracking list is empty




NASA's NSSDC Master Catalog

Two Line Element Set (TLE):
1 41045U 00055C   18141.17633992 -.00000045  00000-0 -85462-6 0  9991
2 41045  98.7876 213.4038 0014712  83.4932 276.7915 14.14136628128303
Source of the keplerian elements: AFSPC